Regional Weather Roundup
Issued by NWS

Home | Current Version | Previous Version | Text Only | Print | Product List | Glossary Off
Versions: 1 2 3 4 5 6 7 8 9 10 11 12 13 14 15 16 17 18 19 20 21 22 23 24 25 26 27 28 29 30 31 32 33 34 35 36 37 38 39 40 41 42 43 44 45 46 47 48 49 50

000
ASUS43 KMKX 260711
RWRWI

WISCONSIN REGIONAL WEATHER ROUNDUP
NATIONAL WEATHER SERVICE MILWAUKEE/SULLIVAN WI
200 AM CDT TUE JUL 26 2016

NOTE: "FAIR" INDICATES FEW OR NO CLOUDS BELOW 12,000 FEET WITH NO
SIGNIFICANT WEATHER AND/OR OBSTRUCTIONS TO VISIBILITY.

WIZ001-002-006>008-014>016-023>028-260800-
NORTHWEST WISCONSIN

CITY           SKY/WX    TMP DP  RH WIND       PRES   REMARKS
SUPERIOR ARPT  CLEAR     68  65  90 SW6       29.99S
ASHLAND        CLEAR     68  63  84 SW6       30.00S
HAYWARD        CLEAR     62  60  93 CALM      30.04S
SIREN          CLEAR     70  64  83 SW3       30.03F
CUMBERLAND     CLEAR     63  61  94 CALM      30.05S
RICE LAKE      FOG       63  62  95 CALM      30.06S VSB 1/4
CHETEK         CLEAR     64  64  99 MISG      30.05S
LADYSMITH      CLEAR     62  61  94 CALM      30.07S
EAU CLAIRE     CLEAR     67  65  93 SW3       30.04S
MENOMONIE      CLEAR     66  61  84 CALM      30.05S
NEW RICHMOND   CLEAR     65  64  98 CALM      30.05S
OSCEOLA        CLEAR     65  65 100 CALM      30.06S
$$

WIZ003>005-009-010-017-018-260800-
NORTH CENTRAL WISCONSIN

CITY           SKY/WX    TMP DP  RH WIND       PRES   REMARKS
MANITOWISH WTR CLEAR     60  60 100 CALM      30.05S
ARBOR VITAE    CLEAR     62  60  93 CALM      30.05F
WOODRUFF       CLEAR     62  60  93 CALM      30.05F
RHINELANDER    CLEAR     63  61  93 W5        30.06F
EAGLE RIVER    CLEAR     60  60 100 CALM      30.05S
LAND O LAKES   CLEAR     55  55  99 CALM      30.06S
PHILLIPS       CLEAR     60  60 100 CALM      30.05S
TOMAHAWK       CLEAR     57  55  95 CALM      30.06F
MEDFORD        CLEAR     59  59 100 S3        30.07S
MERRILL        CLEAR     58  58 100 CALM      30.07S
$$

WIZ029-030-035-036-043>047-260800-
CENTRAL WISCONSIN

CITY           SKY/WX    TMP DP  RH WIND       PRES   REMARKS
WAUSAU         CLEAR     65  61  87 CALM      30.05S
MOSINEE        CLEAR     63  63 100 W5        30.07S
MARSHFIELD     CLEAR     65  60  84 CALM      30.06S
STEVENS POINT  CLEAR     58  58  99 CALM      30.06S
WAUPACA        PTCLDY    66  64  96 CALM      30.04F
WAUTOMA        PTCLDY    63  61  93 CALM      30.06S
WISC RAPIDS    CLEAR     63  60  90 CALM      30.07S FOG
CAMP DOUGLAS   FOG       57  57 100 NW2       30.05F VSB 1/4
$$

WIZ011>013-019>022-031-037>040-048>050-260800-
NORTHEAST WISCONSIN

CITY           SKY/WX    TMP DP  RH WIND       PRES   REMARKS
ANTIGO         CLEAR     58  58  97 CALM      30.07S
SHAWANO        CLEAR     64  61  91 CALM      30.04S
OCONTO         CLEAR    N/A N/A N/A CALM      30.01S
STURGEON BAY   CLEAR     66  64  93 CALM      30.02F
GREEN BAY      PTCLDY    65  65 100 W7        30.02S
MANITOWOC      CLEAR     69  63  81 W3        30.02S
APPLETON       CLEAR     64  61  88 W8        30.03S
CLINTONVILLE   PTCLDY    64  59  82 W3        30.04S
OSHKOSH        CLEAR     68  61  78 W5        30.03S
$$

WIZ032>034-041-042-053>061-260800-
SOUTHWEST WISCONSIN

CITY           SKY/WX    TMP DP  RH WIND       PRES   REMARKS
LA CROSSE      PTCLDY    69  66  90 SE5       30.05S
SPARTA         CLEAR     59  59 100 CALM      30.07S
VIROQUA        PTCLDY    64  63  99 CALM      30.08S
BOSCOBEL       PTCLDY    62  62 100 CALM      30.06S FOG
PRAIRIE DU CHI CLEAR     65  63  93 CALM      30.06S
PLATTEVILLE    CLEAR     65  65  98 N5        30.07S
$$

WIZ056-057-062-063-064-067-068-260800-
SOUTH CENTRAL WISCONSIN

CITY           SKY/WX    TMP DP  RH WIND       PRES   REMARKS
REEDSBURG      CLEAR     63  63 100 CALM      30.06S
BARABOO/DELLS  CLEAR     64  62  93 CALM      30.06S
LONE ROCK      FOG       62  61  96 CALM      30.06S VSB 1/2
MINERAL POINT  CLEAR     68  64  88 CALM      30.07S
MADISON        PTCLDY    66  64  93 CALM      30.04F
MIDDLETON      PTCLDY    65  65 100 CALM      30.06S
WATERTOWN      CLEAR     64  64 100 CALM      30.04S
MONROE         CLEAR     70  63  78 N6        30.06S
JANESVILLE     PTCLDY    68  66  94 CALM      30.04S
$$

WIZ051-052-058>065-066-070>072-260800-
SOUTHEAST WISCONSIN

CITY           SKY/WX    TMP DP  RH WIND       PRES   REMARKS
MILWAUKEE      CLEAR     70  63  78 NW3       30.03S
WAUKESHA       CLEAR     64  63  94 CALM      30.05F
MILWAUKEE/TIMM CLEAR     70  59  68 CALM      30.04S
RACINE         CLEAR     69  63  81 W3        30.05S
BURLINGTON     CLEAR     63  62  99 CALM      30.04S
KENOSHA        PTCLDY    66  62  87 CALM      30.04S
FOND DU LAC    CLEAR     64  60  87 CALM      30.04S
SHEBOYGAN      CLEAR     66  62  87 NW5       30.03S
WEST BEND      CLEAR     63  61  94 CALM      30.04S
JUNEAU         CLEAR     64  63  97 CALM      30.06S
$$

LSZ147-162-260800-
LAKE SUPERIOR

STATION/POSITION TIME  TEMP    WIND        PRES    WAVE
                       AIR SEA DIR/SP/G            HT/PER
                 (UTC) (F)     (DEG/KT/KT) (MB)    (FT/S)
W MID LAKE BUOY  0650   63 60  240/  6/  8 1013.9R   1
DEVILS ISLAND    0700   70     240/ 11/ 12 1014.9R
SAXON HARBOR     0600   71     190/  9/ 11 1015.2
$$

LMZ867-665-643>646-260800-
LAKE MICHIGAN

STATION/POSITION TIME  TEMP    WIND        PRES    WAVE
                       AIR SEA DIR/SP/G            HT/PER
                 (UTC) (F)     (DEG/KT/KT) (MB)    (FT/S)
CHAMBERS ISLAND  0600   65      CALM  /  2 1015.9S
S GREEN BAY BUOY 0630   72 74  300/  6/  8   N/A
N MID LAKE BUOY  0650   70 70  180/  4/  4 1015.3R   1
NORTHPORT PIER   0600   68      CALM  /  2 1015.9R
SISTER BAY       0621   69        CALM       N/A
ALGOMA LAKESHORE 0613          320/  6/  7   N/A
KEWAUNEE LAKESHO 0600   68     300/  4/  5 1015.7R
SHEBOYGAN LAKESH 0700   73     280/  8/  9 1016.4F
PORT WASHINGTON  0600   73     290/  6/  8 1017.3
ATWATER BUOY     0700   65 57  190/  4/  4 1018.4S
MILWAUKEE LAKESH 0610   67     280/  1/  1   N/A
S MID LAKE BUOY  0650   73 73  230/  4/  4 1016.2R   0
KENOSHA   LAKESH 0700   74     260/  5/  6 1016.6S
$$

TC  - TEMPERATURE IN CELSIUS
VSB - VISIBILITY IN STATUTE MILES
WCI - WIND CHILL INDEX
HX  - HEAT INDEX





USA.gov is the U.S. government's official web portal to all federal, state and local government web resources and services.